Weather History for East Milton, MA

Change the Weather History Date:

Tuesday, April 9, 2013

  Actual Average (KBOS) Record (KBOS)
Temperature  
Mean Temperature 60 °F 46 °F  
Max Temperature 73 °F 53 °F 85 °F (1991)
Min Temperature 46 °F 39 °F 24 °F (1888)
Degree Days  
Heating Degree Days 6 19  
Month to date heating degree days 186  
Since 1 July heating degree days 5057  
Cooling Degree Days 0 0  
Month to date cooling degree days 0  
Year to date cooling degree days 0  
Growing Degree Days 10 (Base 50)    
Moisture  
Dew Point 42 °F    
Average Humidity 64    
Maximum Humidity 97    
Minimum Humidity 32    
Precipitation  
Precipitation 0.00 in 0.14 in 1.72 in (1935)
Month to date precipitation 1.23  
Year to date precipitation 12.16  
Sea Level Pressure  
Sea Level Pressure 29.97 in    
Wind  
Wind Speed 13 mph (SW)    
Max Wind Speed 20 mph    
Max Gust Speed 37 mph    
T = Trace of Precipitation, MM = Missing Value Source: NWS Daily Summary

Daily Weather History Graph

Daily Weather History Graph

Search for Another Location

Airport:

Trip Planner

Search our weather history database for the weather conditions in past years. The results will help you decide how hot, cold, wet, or windy it might be!

Date:

Astronomy

Apr. 09, 2013 Rise Set
Actual Time 6:13 AM EDT 7:19 PM EDT
Civil Twilight 5:44 AM EDT 7:48 PM EDT
Nautical Twilight 5:10 AM EDT 8:22 PM EDT
Astronomical Twilight 4:34 AM EDT 8:58 PM EDT
Moon 5:34 AM EDT (4/9) 6:52 PM EDT (4/9)
Length of Visible Light 14h 03m
Length of Day
13h 06m
Waning Crescent, 1% of the Moon is Illuminated
Apr 9
Waning Crescent
Apr 10
New
Apr 18
First Quarter
Apr 25
Full
May 2
Last Quarter

Hourly Weather History & Observations

Time (EDT) Temp. Windchill Dew Point Humidity Pressure Visibility Wind Dir Wind Speed Gust Speed Precip Events Conditions
12:54 AM 46.9 °F - 36.0 °F 66% 30.09 in - SSE 15.0 mph - N/A   Unknown
1:54 AM 46.9 °F - 36.0 °F 66% 30.06 in - SSE 12.7 mph - N/A   Unknown
2:54 AM 46.0 °F 39.9 °F 37.0 °F 71% 30.03 in - SSE 13.8 mph 24.2 mph N/A   Unknown
3:54 AM 46.0 °F 39.0 °F 37.9 °F 73% 29.99 in - SSE 17.3 mph 23.0 mph N/A   Unknown
4:54 AM 46.0 °F 40.2 °F 39.0 °F 76% 29.96 in - SSE 12.7 mph - N/A   Unknown
5:54 AM 46.0 °F 41.9 °F 41.0 °F 83% 29.97 in - SW 8.1 mph - N/A   Unknown
6:54 AM 46.0 °F 41.4 °F 44.1 °F 93% 29.94 in - South 9.2 mph - N/A   Unknown
7:54 AM 46.9 °F - 46.0 °F 97% 29.92 in - South 11.5 mph - N/A   Unknown
8:54 AM 50.0 °F - 46.9 °F 89% 29.91 in - SW 10.4 mph - N/A   Unknown
9:54 AM 55.0 °F - 48.0 °F 77% 29.90 in - WSW 6.9 mph - N/A   Unknown
10:54 AM 63.0 °F - 48.9 °F 60% 29.90 in - WNW 12.7 mph 20.7 mph N/A   Unknown
11:54 AM 66.0 °F - 48.9 °F 54% 29.90 in - WNW 15.0 mph 25.3 mph N/A   Unknown
12:54 PM 69.1 °F - 44.1 °F 40% 29.89 in - WNW 19.6 mph 36.8 mph N/A   Unknown
1:54 PM 72.0 °F - 44.1 °F 37% 29.89 in - West 18.4 mph 32.2 mph N/A   Unknown
2:54 PM 73.0 °F - 42.1 °F 33% 29.91 in - West 13.8 mph 32.2 mph N/A   Unknown
3:54 PM 71.1 °F - 39.9 °F 32% 29.93 in - WNW 12.7 mph 23.0 mph N/A   Unknown
4:54 PM 68.0 °F - 39.0 °F 35% 29.94 in - NW 17.3 mph 24.2 mph N/A   Unknown
5:54 PM 66.0 °F - 37.9 °F 36% 29.98 in - WNW 13.8 mph 23.0 mph N/A   Unknown
6:54 PM 63.0 °F - 37.9 °F 40% 29.98 in - NW 9.2 mph - N/A   Unknown
7:54 PM 53.1 °F - 43.0 °F 69% 30.01 in - NNE 8.1 mph - N/A   Unknown
8:54 PM 48.9 °F - 42.1 °F 77% 30.05 in - ESE 9.2 mph - N/A   Unknown
9:54 PM 46.9 °F - 41.0 °F 80% 30.05 in - East 9.2 mph - N/A   Unknown
10:54 PM 46.9 °F - 39.9 °F 77% 30.05 in - East 6.9 mph - N/A   Unknown
11:54 PM 46.0 °F 39.6 °F 39.9 °F 79% 29.98 in - ESE 15.0 mph - N/A   Unknown